Location: Unspecified
(0.0000°N, 0.0000°E)
Time: 11:21:07
(UTC+00:00)

S-56A Canister/Altair - Pass Details

Date: 24 November 2019
Orbit: 632 x 2500 km, 38.9° (Epoch: 14 December)

Event Time Altitude Azimuth Distance (km) Brightness Sun altitude
Rises 08:07:22 0° 198° (SSW) 5,261 11.9 32.7°
Reaches altitude 10° 08:13:26 10° 174° (S) 4,642 12.0 34.1°
Maximum altitude 08:19:36 14° 146° (SSE) 4,573 12.5 35.4°
Drops below altitude 10° 08:26:14 10° 119° (ESE) 5,110 13.0 36.9°
Sets 08:33:32 0° 97° (E) 6,174 13.0 38.6°
